Location: Lalanga
(4.5882°N, 32.9072°E)
Time: 14:51:33
(UTC+00:00)

ASC 2 Rocket - Pass Details

Date: 24 January 2020
Orbit: 555 x 2345 km, 24.0° (Epoch: 23 February)

Event Time Altitude Azimuth Distance (km) Brightness Sun altitude
Rises 16:52:10 0° 250° (WSW) 3,190 8.8 -13.7°
Reaches altitude 10° 16:54:53 10° 254° (WSW) 2,086 7.2 -14.4°
Maximum altitude 16:59:26 62° 335° (NNW) 649 3.1 -15.4°
Enters shadow 17:01:28 27° 47° (NE) 1,078 3.8 -15.9°
